N8WJW Weather Reports


time (UTC)temp
C
wind
direction
speed
KPH
gust
KPH
rain 1hr
cm
rain 24hr
cm
rain mn
cm
humidity
%
barometer
mb
20260510065955 8 154 0.0 4.8 0.00 0.03 0.03 99 1011.3
20260510065453 8 289 0.0 3.2 0.00 0.03 0.03 99 1011.2
20260510064949 8 98 1.6 3.2 0.00 0.03 0.03 99 1011.2
20260510064446 8 44 0.0 4.8 0.00 0.03 0.03 99 1011.3
20260510063942 8 61 0.0 3.2 0.00 0.03 0.03 99 1011.1
20260510063438 8 252 1.6 3.2 0.00 0.03 0.03 99 1011.0
20260510062936 8 52 0.0 3.2 0.00 0.03 0.03 99 1011.0
20260510062431 8 171 1.6 3.2 0.00 0.03 0.03 99 1011.2
20260510061927 8 150 0.0 4.8 0.00 0.03 0.03 99 1011.4
20260510061424 8 196 0.0 4.8 0.00 0.03 0.03 99 1011.1
20260510060920 8 26 0.0 3.2 0.00 0.03 0.03 99 1011.0
20260510060417 9 242 1.6 3.2 0.00 0.03 0.03 99 1011.0
20260510055913 9 212 0.0 3.2 0.00 0.03 0.03 99 1010.9
20260510055408 9 13 0.0 4.8 0.00 0.03 0.03 99 1010.6
20260510054906 10 246 3.2 8.0 0.00 0.03 0.03 99 1010.5
20260510054401 10 271 0.0 6.4 0.05 0.03 0.03 99 1010.2
20260510053856 10 124 4.8 11.3 0.05 0.03 0.03 99 1010.3
20260510053352 11 111 1.6 4.8 0.00 0.03 0.03 99 1010.5
20260510052849 11 34 0.0 3.2 0.05 0.03 0.03 99 1010.9
20260510052345 11 103 1.6 4.8 0.05 0.00 0.00 99 1010.8
20260510051841 11 267 3.2 4.8 0.05 0.00 0.00 99 1010.5
20260510051338 11 214 0.0 4.8 0.00 0.00 0.00 99 1010.4
20260510050835 11 332 0.0 3.2 0.00 0.00 0.00 99 1009.9
20260510050331 11 224 4.8 6.4 0.00 0.00 0.00 99 1009.8
20260510045829 11 37 0.0 3.2 0.00 0.00 0.00 99 1009.5
20260510045325 11 169 0.0 3.2 0.00 0.00 0.00 99 1009.4
20260510044822 11 341 0.0 1.6 0.00 0.00 0.00 99 1009.6
20260510044319 11 350 1.6 3.2 0.00 0.00 0.00 99 1009.3
20260510043816 11 49 0.0 3.2 0.00 0.00 0.00 99 1009.0
20260510043312 11 4 1.6 3.2 0.00 0.00 0.00 99 1008.9
20260510042809 11 60 1.6 3.2 0.00 0.00 0.00 99 1008.7
20260510042306 10 2 1.6 3.2 0.00 0.00 0.00 99 1008.8
20260510041801 10 139 0.0 3.2 0.00 0.00 0.00 99 1008.6
20260510041259 11 112 3.2 3.2 0.00 0.00 0.00 99 1008.6
20260510040757 11 44 0.0 3.2 0.00 0.00 0.00 99 1008.8
20260510040248 11 177 1.6 4.8 0.00 0.00 0.00 99 1008.5
20260510035743 11 160 0.0 3.2 0.00 0.66 0.66 99 1008.6
20260510035239 11 225 0.0 3.2 0.00 0.66 0.66 99 1008.6
20260510034735 11 89 0.0 3.2 0.00 0.66 0.66 99 1008.6
20260510034233 11 142 0.0 1.6 0.00 0.66 0.66 99 1008.8
20260510033729 11 71 0.0 4.8 0.00 0.66 0.66 99 1008.6
20260510033227 11 40 1.6 3.2 0.00 0.66 0.66 99 1008.8
20260510032722 11 131 0.0 3.2 0.00 0.66 0.66 99 1008.8
20260510032218 11 127 1.6 3.2 0.00 0.66 0.66 99 1008.7
20260510031713 11 51 1.6 3.2 0.00 0.66 0.66 99 1008.5
20260510031210 11 130 0.0 3.2 0.00 0.66 0.66 99 1008.5
20260510030704 11 199 0.0 4.8 0.00 0.66 0.66 99 1008.7
20260510030202 11 174 3.2 4.8 0.00 0.66 0.66 99 1008.7
20260510025659 11 201 4.8 9.7 0.00 0.66 0.66 99 1008.9
20260510025156 11 177 4.8 9.7 0.00 0.66 0.66 99 1009.1
20260510024653 11 209 4.8 6.4 0.00 0.66 0.66 99 1009.1
20260510024149 11 6 0.0 3.2 0.00 0.66 0.66 99 1008.3
20260510023645 11 33 0.0 3.2 0.00 0.66 0.66 99 1008.3
20260510023143 11 82 1.6 3.2 0.00 0.66 0.66 99 1008.3
20260510022642 11 89 0.0 1.6 0.00 0.66 0.66 99 1008.4
20260510022138 11 230 0.0 1.6 0.00 0.66 0.66 99 1008.3
20260510021634 11 126 0.0 3.2 0.00 0.66 0.66 99 1008.3
20260510021131 10 49 0.0 1.6 0.00 0.66 0.66 99 1008.4
20260510020626 10 110 0.0 3.2 0.00 0.66 0.66 99 1008.3
20260510020121 10 118 1.6 3.2 0.00 0.66 0.66 99 1008.6
20260510015617 11 65 1.6 3.2 0.00 0.66 0.66 99 1008.6
20260510015114 11 117 0.0 1.6 0.00 0.66 0.66 99 1008.4
20260510014609 11 304 0.0 0.0 0.00 0.66 0.66 99 1008.4
20260510014107 11 164 0.0 3.2 0.00 0.66 0.66 99 1008.4
20260510013601 11 32 0.0 1.6 0.00 0.66 0.66 99 1008.3
20260510013058 11 195 0.0 3.2 0.00 0.66 0.66 99 1008.0
20260510012551 11 167 3.2 3.2 0.00 0.66 0.66 99 1008.2
20260510012049 11 123 3.2 4.8 0.00 0.66 0.66 99 1008.1
20260510011548 11 117 0.0 1.6 0.00 0.66 0.66 99 1008.0
20260510011044 11 54 0.0 3.2 0.00 0.66 0.66 99 1007.9
20260510010541 11 28 0.0 1.6 0.00 0.66 0.66 99 1007.9
20260510010038 11 32 0.0 1.6 0.00 0.66 0.66 99 1007.8
20260510005533 11 341 0.0 1.6 0.00 0.66 0.66 99 1007.9
20260510005031 11 229 0.0 1.6 0.00 0.66 0.66 99 1008.0
20260510004529 12 191 1.6 4.8 0.00 0.66 0.66 99 1007.8
20260510004027 12 184 3.2 6.4 0.00 0.66 0.66 99 1007.5
20260510003523 12 184 3.2 8.0 0.00 0.66 0.66 99 1007.8
20260510003019 12 194 3.2 4.8 0.00 0.66 0.66 99 1007.9
20260510002514 12 168 3.2 6.4 0.00 0.66 0.66 99 1007.9
20260510002011 12 192 4.8 6.4 0.00 0.66 0.66 99 1007.7
20260510001509 12 179 4.8 6.4 0.00 0.66 0.66 99 1007.8
20260510001006 12 185 4.8 6.4 0.00 0.66 0.66 99 1007.9
20260510000501 12 254 6.4 8.0 0.00 0.66 0.66 99 1007.8
20260509235958 12 209 3.2 4.8 0.00 0.66 0.66 99 1007.8
20260509235455 12 178 3.2 9.7 0.00 0.66 0.66 99 1007.7
20260509234951 12 183 4.8 6.4 0.00 0.66 0.66 99 1007.9
20260509234448 12 216 4.8 4.8 0.00 0.66 0.66 99 1007.9
20260509233946 12 196 4.8 6.4 0.00 0.66 0.66 99 1007.7
20260509233443 12 206 3.2 8.0 0.00 0.66 0.66 99 1007.7
20260509232939 12 206 0.0 4.8 0.05 0.66 0.66 99 1007.4
20260509232438 12 54 3.2 4.8 0.13 0.66 0.66 98 1007.4
20260509231933 12 138 4.8 8.0 0.18 0.66 0.66 98 1007.1
20260509231430 12 227 3.2 14.5 0.30 0.66 0.66 98 1007.7
20260509230928 12 110 3.2 9.7 0.48 0.64 0.64 97 1007.9
20260509230424 12 141 3.2 11.3 1.75 0.58 0.58 96 1007.8
20260509225920 12 179 3.2 9.7 2.21 0.51 0.51 95 1007.8
20260509225417 12 249 1.6 27.4 1.14 0.28 0.28 92 1007.7
20260509224913 13 29 4.8 20.9 0.23 0.13 0.13 81 1007.2
20260509224408 16 26 3.2 17.7 0.00 0.08 0.08 71 1007.0
20260509223906 18 267 3.2 6.4 0.00 0.08 0.08 60 1005.9
20260509223403 19 175 4.8 9.7 0.00 0.08 0.08 59 1005.5
20260509222900 19 194 9.7 22.5 0.00 0.08 0.08 57 1005.5
20260509222354 19 193 8.0 14.5 0.00 0.08 0.08 58 1005.1
20260509221850 19 204 11.3 17.7 0.00 0.08 0.08 59 1005.1
20260509221347 19 189 6.4 16.1 0.00 0.08 0.08 58 1005.3
20260509220843 19 167 16.1 19.3 0.00 0.08 0.08 58 1005.2
20260509220339 19 239 14.5 19.3 0.00 0.08 0.08 57 1005.2
20260509215835 20 193 12.9 22.5 0.00 0.08 0.08 57 1005.3
20260509215332 20 200 8.0 17.7 0.00 0.08 0.08 59 1005.1
20260509214829 20 187 8.0 17.7 0.00 0.08 0.08 59 1004.9
20260509214326 20 178 11.3 24.1 0.00 0.08 0.08 60 1004.9
20260509213823 20 241 11.3 22.5 0.00 0.08 0.08 59 1004.8
20260509213318 20 165 8.0 14.5 0.00 0.08 0.08 60 1004.6
20260509212816 21 163 6.4 24.1 0.00 0.08 0.08 57 1004.7
20260509212314 21 215 9.7 14.5 0.00 0.08 0.08 56 1004.9
20260509211809 20 204 17.7 29.0 0.00 0.08 0.08 56 1004.9
20260509211305 20 198 12.9 25.7 0.00 0.08 0.08 58 1005.0
20260509210802 20 172 17.7 24.1 0.00 0.08 0.08 57 1005.3
20260509210300 21 200 6.4 17.7 0.00 0.08 0.08 57 1005.0
20260509205759 21 256 20.9 27.4 0.00 0.08 0.08 55 1005.2
20260509205254 21 185 9.7 20.9 0.00 0.08 0.08 57 1005.3
20260509204750 20 230 19.3 19.3 0.00 0.08 0.08 57 1005.4
20260509204247 20 195 9.7 17.7 0.00 0.08 0.08 58 1005.5
20260509203743 20 217 9.7 32.2 0.00 0.08 0.08 56 1005.8
20260509203241 20 190 9.7 12.9 0.00 0.08 0.08 59 1005.8
20260509202736 20 263 12.9 14.5 0.00 0.08 0.08 57 1005.7
20260509202232 20 199 9.7 14.5 0.00 0.08 0.08 59 1005.9
20260509201727 20 221 11.3 24.1 0.00 0.08 0.08 56 1005.9
20260509201224 20 202 9.7 16.1 0.00 0.08 0.08 58 1005.8
20260509200720 20 211 4.8 19.3 0.00 0.08 0.08 61 1005.8
20260509200215 19 180 9.7 22.5 0.00 0.08 0.08 61 1006.1
20260509195711 20 188 9.7 17.7 0.00 0.08 0.08 59 1006.1
20260509195206 20 223 8.0 22.5 0.00 0.08 0.08 60 1006.2
20260509194701 20 236 14.5 20.9 0.00 0.08 0.08 62 1006.2
20260509194158 20 214 8.0 17.7 0.00 0.08 0.08 63 1006.2
20260509193654 19 207 9.7 22.5 0.00 0.08 0.08 62 1006.4
20260509193150 19 212 16.1 22.5 0.00 0.08 0.08 61 1006.4
20260509192646 20 210 9.7 19.3 0.00 0.08 0.08 60 1006.5
20260509192141 20 202 4.8 27.4 0.00 0.08 0.08 59 1006.6
20260509191635 19 215 16.1 25.7 0.00 0.08 0.08 61 1006.8
20260509191132 20 201 24.1 24.1 0.00 0.08 0.08 62 1006.9
20260509190629 19 259 8.0 14.5 0.00 0.08 0.08 60 1006.8
20260509190126 18 257 16.1 16.1 0.00 0.08 0.08 62 1006.8
20260509185624 18 184 11.3 20.9 0.00 0.08 0.08 61 1007.1
20260509185120 18 186 12.9 16.1 0.00 0.08 0.08 62 1007.2
20260509184618 18 219 4.8 22.5 0.00 0.08 0.08 63 1007.1
20260509184115 18 191 6.4 14.5 0.00 0.08 0.08 64 1006.9
20260509183610 18 182 9.7 24.1 0.00 0.08 0.08 62 1007.0
20260509183106 20 216 14.5 22.5 0.00 0.08 0.08 60 1006.9
20260509182602 19 213 4.8 14.5 0.00 0.08 0.08 63 1006.8
20260509182059 18 250 16.1 17.7 0.00 0.08 0.08 62 1006.8
20260509181558 18 216 8.0 19.3 0.00 0.08 0.08 65 1006.8
20260509181055 18 225 14.5 16.1 0.00 0.08 0.08 68 1006.9
20260509180550 19 176 16.1 16.1 0.00 0.08 0.08 63 1007.0
20260509180048 18 258 6.4 16.1 0.00 0.08 0.08 66 1007.1
20260509175543 18 224 6.4 17.7 0.00 0.08 0.08 67 1007.1
20260509175041 18 219 14.5 20.9 0.00 0.08 0.08 67 1007.0
20260509174537 18 184 4.8 9.7 0.00 0.08 0.08 68 1007.1
20260509174032 18 256 12.9 14.5 0.00 0.08 0.08 69 1007.2
20260509173527 18 219 11.3 14.5 0.00 0.08 0.08 69 1007.0
20260509173023 18 104 6.4 12.9 0.00 0.08 0.08 69 1006.8
20260509172521 17 168 4.8 16.1 0.00 0.08 0.08 69 1006.8
20260509172016 17 205 8.0 11.3 0.00 0.08 0.08 68 1007.1
20260509171512 17 195 11.3 16.1 0.00 0.08 0.08 70 1007.2
20260509171009 17 159 6.4 14.5 0.00 0.08 0.08 70 1007.1
20260509170504 17 213 12.9 14.5 0.00 0.08 0.08 72 1007.2
20260509170001 17 243 6.4 16.1 0.00 0.08 0.08 70 1007.2
20260509165459 17 222 4.8 17.7 0.00 0.08 0.08 71 1007.1
20260509164955 17 180 4.8 16.1 0.00 0.08 0.08 71 1007.2
20260509164451 17 186 4.8 12.9 0.00 0.08 0.08 75 1007.1
20260509163947 17 223 3.2 11.3 0.00 0.08 0.08 71 1007.1
20260509163445 17 193 8.0 14.5 0.00 0.08 0.08 71 1007.4
20260509162944 16 175 9.7 12.9 0.00 0.08 0.08 74 1007.3
20260509162443 16 158 6.4 9.7 0.00 0.08 0.08 76 1007.9
20260509161938 16 235 6.4 12.9 0.00 0.08 0.08 78 1007.7
20260509161435 16 250 4.8 11.3 0.00 0.08 0.08 75 1007.9
20260509160930 16 168 1.6 9.7 0.00 0.08 0.08 78 1008.1
20260509160426 16 233 6.4 14.5 0.00 0.08 0.08 78 1008.2
20260509155921 15 126 4.8 17.7 0.00 0.08 0.08 81 1008.2
20260509155419 15 188 3.2 11.3 0.00 0.08 0.08 77 1008.1
20260509154915 16 208 6.4 11.3 0.00 0.08 0.08 77 1008.1
20260509154411 15 185 8.0 11.3 0.00 0.08 0.08 79 1008.2
20260509153908 14 148 1.6 14.5 0.00 0.08 0.08 80 1008.1
20260509153405 14 330 0.0 4.8 0.00 0.08 0.08 83 1008.2
20260509152902 14 198 4.8 11.3 0.00 0.08 0.08 82 1007.9
20260509152358 14 189 4.8 8.0 0.00 0.08 0.08 84 1007.7
20260509151856 14 190 8.0 14.5 0.00 0.08 0.08 84 1008.0
20260509151351 15 178 8.0 16.1 0.00 0.08 0.08 85 1007.9
20260509150850 15 223 4.8 8.0 0.00 0.08 0.08 86 1008.0
20260509150347 14 257 3.2 11.3 0.00 0.08 0.08 87 1008.1
20260509145844 14 180 6.4 8.0 0.00 0.08 0.08 88 1008.1
20260509145339 14 217 12.9 17.7 0.00 0.08 0.08 89 1008.1
20260509144836 13 177 6.4 9.7 0.00 0.08 0.08 90 1008.1
20260509144332 13 129 0.0 8.0 0.00 0.08 0.08 91 1008.2
20260509143830 14 218 4.8 8.0 0.00 0.08 0.08 91 1008.2
20260509143327 13 213 3.2 6.4 0.00 0.08 0.08 92 1008.0
20260509142823 13 211 6.4 11.3 0.00 0.08 0.08 93 1008.0
20260509142319 13 180 4.8 8.0 0.00 0.08 0.08 94 1008.1
20260509141815 13 191 6.4 12.9 0.00 0.08 0.08 94 1008.0
20260509141312 13 199 4.8 9.7 0.00 0.08 0.08 94 1008.1
20260509140809 12 195 6.4 8.0 0.00 0.08 0.08 95 1008.0
20260509140306 12 230 0.0 4.8 0.00 0.08 0.08 96 1008.0
20260509135804 12 151 6.4 8.0 0.00 0.08 0.08 96 1008.2
20260509135301 12 275 4.8 6.4 0.00 0.08 0.08 96 1008.1
20260509134758 12 173 3.2 6.4 0.00 0.08 0.08 97 1008.1
20260509134255 12 316 4.8 4.8 0.00 0.08 0.08 97 1008.3
20260509133752 12 214 4.8 8.0 0.00 0.08 0.08 97 1008.0
20260509133249 12 159 4.8 8.0 0.00 0.08 0.08 98 1008.1
20260509132748 12 193 3.2 6.4 0.00 0.08 0.08 99 1008.1
20260509132246 12 208 3.2 8.0 0.00 0.08 0.08 99 1008.1
20260509131742 11 184 3.2 8.0 0.00 0.08 0.08 99 1008.1
20260509131239 11 199 3.2 6.4 0.00 0.08 0.08 99 1007.9
20260509130735 11 208 4.8 8.0 0.00 0.08 0.08 99 1008.1
20260509130231 11 302 1.6 9.7 0.00 0.08 0.08 99 1008.1
20260509125728 11 213 3.2 4.8 0.00 0.08 0.08 99 1008.2
20260509125225 11 215 4.8 8.0 0.00 0.08 0.08 99 1008.2
20260509124721 11 188 8.0 14.5 0.00 0.08 0.08 99 1008.3
20260509124218 11 159 4.8 8.0 0.00 0.08 0.08 99 1008.2
20260509123716 11 198 3.2 4.8 0.00 0.08 0.08 99 1008.5
20260509123213 11 218 3.2 8.0 0.00 0.08 0.08 99 1008.3
20260509122708 11 189 4.8 8.0 0.00 0.08 0.08 99 1008.3
20260509122206 11 198 3.2 6.4 0.00 0.08 0.08 99 1008.4
20260509121702 11 213 4.8 6.4 0.00 0.08 0.08 99 1008.2
20260509121200 11 180 3.2 4.8 0.00 0.08 0.08 99 1008.6
20260509120658 11 227 4.8 8.0 0.00 0.08 0.08 99 1008.3
20260509120155 11 196 4.8 9.7 0.00 0.08 0.08 99 1008.4
20260509115653 11 179 1.6 9.7 0.00 0.08 0.08 99 1008.7
20260509115150 11 213 4.8 8.0 0.00 0.08 0.08 99 1008.4
20260509114648 11 172 4.8 8.0 0.00 0.08 0.08 99 1008.4
20260509114147 11 219 3.2 6.4 0.00 0.08 0.08 99 1008.5
20260509113645 10 212 4.8 6.4 0.00 0.08 0.08 99 1008.4
20260509113142 10 134 1.6 6.4 0.00 0.08 0.08 99 1008.5
20260509112638 10 245 0.0 4.8 0.00 0.08 0.08 99 1008.4
20260509112136 10 189 4.8 6.4 0.00 0.08 0.08 99 1008.4
20260509111632 10 223 6.4 6.4 0.00 0.08 0.08 99 1008.3
20260509111129 10 215 3.2 9.7 0.00 0.08 0.08 99 1008.2
20260509110626 10 211 4.8 6.4 0.00 0.08 0.08 99 1008.1
20260509110124 10 189 6.4 8.0 0.00 0.08 0.08 99 1008.2
20260509105622 10 199 3.2 4.8 0.00 0.08 0.08 99 1008.2
20260509105119 10 187 3.2 8.0 0.00 0.08 0.08 99 1008.3
20260509104616 10 186 3.2 4.8 0.00 0.08 0.08 99 1008.3
20260509104112 10 209 3.2 4.8 0.00 0.08 0.08 99 1008.2
20260509103610 10 113 0.0 4.8 0.00 0.08 0.08 99 1008.2
20260509103108 10 273 0.0 4.8 0.00 0.08 0.08 99 1008.3
20260509102605 10 190 4.8 6.4 0.00 0.08 0.08 99 1008.4
20260509102102 10 219 3.2 4.8 0.00 0.08 0.08 99 1008.2
20260509101558 10 161 4.8 6.4 0.00 0.08 0.08 99 1008.2
20260509101055 10 219 3.2 4.8 0.00 0.08 0.08 99 1008.2
20260509100552 10 243 3.2 6.4 0.00 0.08 0.08 99 1008.2
20260509100050 10 160 3.2 4.8 0.00 0.08 0.08 99 1008.3
20260509095546 10 214 3.2 4.8 0.00 0.08 0.08 99 1008.1
20260509095044 10 176 4.8 6.4 0.00 0.08 0.08 99 1008.2
20260509094540 10 196 0.0 4.8 0.00 0.08 0.08 99 1008.3
20260509094037 10 222 6.4 9.7 0.00 0.08 0.08 99 1008.4
20260509093536 10 187 4.8 6.4 0.00 0.08 0.08 99 1008.5
20260509093033 10 211 0.0 3.2 0.00 0.08 0.08 99 1008.4
20260509092530 10 176 4.8 4.8 0.00 0.08 0.08 99 1008.4
20260509092029 10 189 4.8 4.8 0.00 0.08 0.08 99 1008.5
20260509091526 10 188 4.8 4.8 0.00 0.08 0.08 99 1008.7
20260509091022 10 239 4.8 6.4 0.00 0.08 0.08 99 1008.7
20260509090520 10 217 3.2 4.8 0.00 0.08 0.08 99 1008.6
20260509090018 10 197 1.6 4.8 0.00 0.08 0.08 99 1008.7
20260509085514 10 194 3.2 4.8 0.00 0.08 0.08 99 1008.6
20260509085010 10 218 1.6 8.0 0.00 0.08 0.08 99 1008.8
20260509084508 10 214 3.2 6.4 0.00 0.08 0.08 99 1008.8
20260509084005 10 209 4.8 8.0 0.00 0.08 0.08 99 1008.9
20260509083502 10 235 1.6 8.0 0.00 0.08 0.08 99 1008.9
20260509082958 10 199 1.6 4.8 0.00 0.08 0.08 99 1009.0
20260509082456 10 243 4.8 8.0 0.00 0.08 0.08 99 1008.9
20260509081953 10 240 1.6 4.8 0.00 0.08 0.08 99 1008.8
20260509081450 10 192 1.6 4.8 0.00 0.08 0.08 99 1008.8
20260509080947 10 201 4.8 8.0 0.00 0.08 0.08 99 1008.8
20260509080445 10 210 4.8 9.7 0.00 0.08 0.08 99 1008.9
20260509075943 10 191 4.8 4.8 0.00 0.08 0.08 99 1008.8
20260509075439 10 172 3.2 6.4 0.00 0.08 0.08 99 1008.9
20260509074938 10 182 1.6 8.0 0.00 0.08 0.08 99 1008.9
20260509074435 10 198 4.8 6.4 0.00 0.08 0.08 99 1009.0
20260509073931 10 179 3.2 4.8 0.00 0.08 0.08 99 1009.0
20260509073427 10 240 1.6 3.2 0.00 0.08 0.08 99 1009.0
20260509072918 10 161 4.8 4.8 0.00 0.08 0.08 99 1009.1
20260509072415 10 213 4.8 6.4 0.00 0.08 0.08 99 1009.3
20260509071911 10 213 3.2 4.8 0.00 0.08 0.08 99 1009.2
20260509071409 10 204 1.6 8.0 0.00 0.08 0.08 99 1009.1
20260509070907 10 147 1.6 4.8 0.00 0.08 0.08 99 1009.1
20260509070403 10 203 3.2 4.8 0.00 0.08 0.08 99 1009.0